,,,PA_Meas_PMT16A,,PR_Meas_QMR101_102,,RH_Meas_QMH101,,SR_Meas_QMS101,,TA_Meas_QMH101,,GenWind,,GenWind,
date,time,status,PA,status,PR,status,RH,status,SR,status,TA,status,DirAvg,status,SpdAvg,
2011-08-09, 00:00:04,VALID,1001.4,VALID,0,VALID,81.698,VALID,0,VALID,24.1482,VALID,93,VALID,0.531641,
2011-08-09, 00:01:04,VALID,1001.34,VALID,0,VALID,81.8735,VALID,0,VALID,24.0915,VALID,93,VALID,0.408984,
2011-08-09, 00:02:04,VALID,1001.31,VALID,0,VALID,82.1329,VALID,0,VALID,24.0543,VALID,93,VALID,0.313672,
2011-08-09, 00:03:04,VALID,1001.29,VALID,0,VALID,82.3617,VALID,0,VALID,24.0134,VALID,93,VALID,0.298828,
2011-08-09, 00:04:04,VALID,1001.3,VALID,0,VALID,82.6974,VALID,0,VALID,23.9549,VALID,93,VALID,0.226563,
2011-08-09, 00:05:04,VALID,1001.29,VALID,0,VALID,82.9111,VALID,0,VALID,23.9354,VALID,93,VALID,0.298047,
2011-08-09, 00:06:04,VALID,1001.29,VALID,0,VALID,83.0255,VALID,0,VALID,23.8768,VALID,93,VALID,0.105078,
2011-08-09, 00:07:04,VALID,1001.24,VALID,0,VALID,83.0942,VALID,0,VALID,23.8591,VALID,93,VALID,0.370703,
2011-08-09, 00:08:04,VALID,1001.24,VALID,0,VALID,83.1781,VALID,0,VALID,23.8201,VALID,93,VALID,0.009375,
2011-08-09, 00:09:04,VALID,1001.25,VALID,0,VALID,83.407,VALID,0,VALID,23.7988,VALID,93,VALID,0.316406,
2011-08-09, 00:10:04,VALID,1001.23,VALID,0,VALID,83.6893,VALID,0,VALID,23.7793,VALID,93,VALID,0.133594,
2011-08-09, 00:11:04,VALID,1001.23,VALID,0,VALID,83.9106,VALID,0,VALID,23.7811,VALID,93,VALID,0.280469,
2011-08-09, 00:12:04,VALID,1001.21,VALID,0,VALID,84.0555,VALID,0,VALID,23.742,VALID,93,VALID,0.280078,
2011-08-09, 00:13:04,VALID,1001.2,VALID,0,VALID,84.1852,VALID,0,VALID,23.7225,VALID,93,VALID,0.379297,
2011-08-09, 00:14:04,VALID,1001.21,VALID,0,VALID,84.3836,VALID,0,VALID,23.6622,VALID,93,VALID,0.577734,
2011-08-09, 00:15:04,VALID,1001.21,VALID,0,VALID,84.5515,VALID,0,VALID,23.6427,VALID,89,VALID,0.557031,
2011-08-09, 00:16:04,VALID,1001.24,VALID,0,VALID,84.4523,VALID,0,VALID,23.6214,VALID,87,VALID,0.495703,
2011-08-09, 00:17:04,VALID,1001.2,VALID,0,VALID,84.7956,VALID,0,VALID,23.6214,VALID,87,VALID,0.686328,
2011-08-09, 00:18:04,VALID,1001.23,VALID,0,VALID,84.9253,VALID,0,VALID,23.6427,VALID,87,VALID,0.679297,
2011-08-09, 00:19:04,VALID,1001.25,VALID,0,VALID,85.2076,VALID,0,VALID,23.6214,VALID,61,VALID,0.764453,
2011-08-09, 00:20:04,VALID,1001.22,VALID,0,VALID,85.2305,VALID,0.112286,VALID,23.6817,VALID,61,VALID,0.498828,
2011-08-09, 00:21:04,VALID,1001.23,VALID,0,VALID,85.2076,VALID,0,VALID,23.6604,VALID,61,VALID,0.437891,
2011-08-09, 00:22:04,VALID,1001.22,VALID,0,VALID,85.055,VALID,0,VALID,23.6994,VALID,61,VALID,0.386719,
2011-08-09, 00:23:04,VALID,1001.2,VALID,0,VALID,84.7651,VALID,0,VALID,23.6604,VALID,61,VALID,0.348437,
2011-08-09, 00:24:04,VALID,1001.21,VALID,0,VALID,84.7574,VALID,0,VALID,23.6214,VALID,61,VALID,0.153516,
2011-08-09, 00:25:04,VALID,1001.22,VALID,0,VALID,84.9558,VALID,0,VALID,23.6232,VALID,61,VALID,0.162109,
2011-08-09, 00:26:04,VALID,1001.19,VALID,0,VALID,85.0474,VALID,0,VALID,23.6019,VALID,61,VALID,0,
2011-08-09, 00:27:04,VALID,1001.22,VALID,0,VALID,85.322,VALID,0,VALID,23.5823,VALID,61,VALID,0.00625,
2011-08-09, 00:28:04,VALID,1001.22,VALID,0,VALID,85.4365,VALID,0,VALID,23.5823,VALID,61,VALID,0.0921875,
2011-08-09, 00:29:04,VALID,1001.17,VALID,0,VALID,85.5357,VALID,0,VALID,23.5628,VALID,61,VALID,0,
2011-08-09, 00:30:04,VALID,1001.13,VALID,0,VALID,85.5738,VALID,0,VALID,23.5433,VALID,61,VALID,0,
2011-08-09, 00:31:04,VALID,1001.1,VALID,0,VALID,85.5738,VALID,0.112286,VALID,23.5238,VALID,61,VALID,0,
2011-08-09, 00:32:04,VALID,1001.11,VALID,0,VALID,85.734,VALID,0,VALID,23.5061,VALID,61,VALID,0,
2011-08-09, 00:33:04,VALID,1001.06,VALID,0,VALID,85.8332,VALID,0,VALID,23.5061,VALID,61,VALID,0,
2011-08-09, 00:34:04,VALID,1001.03,VALID,0,VALID,85.7569,VALID,0,VALID,23.5256,VALID,61,VALID,0.140625,
2011-08-09, 00:35:04,VALID,1001.05,VALID,0,VALID,85.3602,VALID,0,VALID,23.5451,VALID,61,VALID,0.0148437,
2011-08-09, 00:36:04,VALID,1001,VALID,0,VALID,84.849,VALID,0,VALID,23.5433,VALID,61,VALID,0,
2011-08-09, 00:37:04,VALID,1001.03,VALID,0,VALID,84.6659,VALID,0,VALID,23.6019,VALID,61,VALID,0.220703,
2011-08-09, 00:38:04,VALID,1000.98,VALID,0,VALID,84.1852,VALID,0,VALID,23.6622,VALID,61,VALID,0.186719,
2011-08-09, 00:39:04,VALID,1000.96,VALID,0,VALID,83.8419,VALID,0.112286,VALID,23.6799,VALID,61,VALID,0,
2011-08-09, 00:40:04,VALID,1000.94,VALID,0,VALID,83.7351,VALID,0,VALID,23.7012,VALID,61,VALID,0.157813,
2011-08-09, 00:41:04,VALID,1000.95,VALID,0,VALID,83.674,VALID,0,VALID,23.7189,VALID,61,VALID,0.200391,
2011-08-09, 00:42:04,VALID,1000.89,VALID,0,VALID,83.3307,VALID,0,VALID,23.7793,VALID,61,VALID,0.450391,
2011-08-09, 00:43:04,VALID,1000.9,VALID,0,VALID,82.789,VALID,0,VALID,23.7775,VALID,125,VALID,0.765625,
2011-08-09, 00:44:04,VALID,1000.88,VALID,0,VALID,82.5906,VALID,0,VALID,23.8165,VALID,129,VALID,0.776953,
2011-08-09, 00:45:04,VALID,1000.88,VALID,0,VALID,82.3083,VALID,0,VALID,23.8963,VALID,129,VALID,0.952734,
2011-08-09, 00:46:04,VALID,1000.85,VALID,0,VALID,81.5835,VALID,0,VALID,23.9354,VALID,128,VALID,1.10742,
2011-08-09, 00:47:04,VALID,1000.82,VALID,0,VALID,81.286,VALID,0,VALID,23.9744,VALID,128,VALID,1.1457,
2011-08-09, 00:48:04,VALID,1000.79,VALID,0,VALID,81.3012,VALID,0,VALID,23.9939,VALID,128,VALID,1.1082,
2011-08-09, 00:49:04,VALID,1000.78,VALID,0,VALID,81.2478,VALID,0,VALID,24.0543,VALID,129,VALID,0.925781,
2011-08-09, 00:50:04,VALID,1000.77,VALID,0,VALID,80.9732,VALID,0,VALID,24.072,VALID,139,VALID,0.882422,
2011-08-09, 00:51:04,VALID,1000.77,VALID,0,VALID,80.935,VALID,0,VALID,24.0933,VALID,136,VALID,0.930469,
2011-08-09, 00:52:04,VALID,1000.76,VALID,0,VALID,80.874,VALID,0,VALID,24.111,VALID,136,VALID,0.871875,
2011-08-09, 00:53:04,VALID,1000.74,VALID,0,VALID,80.6146,VALID,0,VALID,24.1305,VALID,139,VALID,0.877344,
2011-08-09, 00:54:04,VALID,1000.73,VALID,0,VALID,80.2789,VALID,0,VALID,24.1891,VALID,138,VALID,0.844141,
2011-08-09, 00:55:04,VALID,1000.73,VALID,0,VALID,80.1873,VALID,0,VALID,24.2086,VALID,138,VALID,0.799219,
2011-08-09, 00:56:04,VALID,1000.69,VALID,0,VALID,79.6685,VALID,0,VALID,24.2086,VALID,138,VALID,0.765625,
2011-08-09, 00:57:04,VALID,1000.65,VALID,0,VALID,79.5464,VALID,0,VALID,24.2281,VALID,138,VALID,0.714063,
2011-08-09, 00:58:04,VALID,1000.61,VALID,0,VALID,79.493,VALID,0,VALID,24.2476,VALID,138,VALID,0.476172,
2011-08-09, 00:59:04,VALID,1000.61,VALID,0,VALID,79.5388,VALID,0,VALID,24.2281,VALID,138,VALID,0.80625,
2011-08-09, 01:00:04,VALID,1000.6,VALID,0,VALID,79.3328,VALID,0,VALID,24.2885,VALID,138,VALID,0.672656,
2011-08-09, 01:01:04,VALID,1000.58,VALID,0,VALID,79.3252,VALID,0,VALID,24.2458,VALID,138,VALID,0.75625,
2011-08-09, 01:02:04,VALID,1000.55,VALID,0,VALID,79.4015,VALID,0,VALID,24.2671,VALID,150,VALID,0.423828,
2011-08-09, 01:03:04,VALID,1000.57,VALID,0,VALID,79.1115,VALID,0,VALID,24.2866,VALID,150,VALID,0.727734,
2011-08-09, 01:04:04,VALID,1000.54,VALID,0,VALID,78.6995,VALID,0,VALID,24.2866,VALID,163,VALID,0.676172,
2011-08-09, 01:05:04,VALID,1000.54,VALID,0,VALID,78.875,VALID,0,VALID,24.2458,VALID,163,VALID,0.835938,
2011-08-09, 01:06:04,VALID,1000.53,VALID,0,VALID,79.02,VALID,0,VALID,24.2458,VALID,157,VALID,1.1082,
2011-08-09, 01:07:04,VALID,1000.53,VALID,0,VALID,78.7835,VALID,0,VALID,24.3043,VALID,153,VALID,1.31133,
2011-08-09, 01:08:04,VALID,1000.53,VALID,0,VALID,78.6538,VALID,0.112286,VALID,24.3238,VALID,146,VALID,1.5375,
2011-08-09, 01:09:04,VALID,1000.52,VALID,0,VALID,78.7072,VALID,0,VALID,24.3238,VALID,148,VALID,1.12422,
2011-08-09, 01:10:04,VALID,1000.52,VALID,0,VALID,78.6843,VALID,0.112286,VALID,24.3452,VALID,148,VALID,1.17617,
2011-08-09, 01:11:04,VALID,1000.51,VALID,0,VALID,78.5622,VALID,0,VALID,24.3647,VALID,148,VALID,1.33242,
2011-08-09, 01:12:04,VALID,1000.49,VALID,0,VALID,78.4096,VALID,0,VALID,24.3824,VALID,155,VALID,1.30469,
2011-08-09, 01:13:04,VALID,1000.49,VALID,0,VALID,78.3638,VALID,0,VALID,24.3842,VALID,152,VALID,1.02539,
2011-08-09, 01:14:04,VALID,1000.46,VALID,0,VALID,78.608,VALID,0,VALID,24.3647,VALID,154,VALID,1.25078,
2011-08-09, 01:15:04,VALID,1000.46,VALID,0,VALID,78.6309,VALID,0,VALID,24.3452,VALID,153,VALID,1.1582,
2011-08-09, 01:16:04,VALID,1000.47,VALID,0,VALID,78.7758,VALID,0,VALID,24.3452,VALID,150,VALID,1.07383,
2011-08-09, 01:17:04,VALID,1000.47,VALID,0,VALID,78.7453,VALID,0,VALID,24.3238,VALID,150,VALID,1.06914,
2011-08-09, 01:18:04,VALID,1000.48,VALID,0,VALID,78.7911,VALID,0,VALID,24.3043,VALID,168,VALID,1.03086,
2011-08-09, 01:19:04,VALID,1000.47,VALID,0,VALID,78.875,VALID,0,VALID,24.3257,VALID,162,VALID,1.07578,
2011-08-09, 01:20:04,VALID,1000.47,VALID,0,VALID,78.8216,VALID,0,VALID,24.3062,VALID,162,VALID,0.918359,
2011-08-09, 01:21:04,VALID,1000.45,VALID,0,VALID,78.7987,VALID,0,VALID,24.3062,VALID,162,VALID,0.779688,
2011-08-09, 01:22:04,VALID,1000.44,VALID,0,VALID,78.7911,VALID,0.112286,VALID,24.3062,VALID,171,VALID,1.14844,
2011-08-09, 01:23:04,VALID,1000.39,VALID,0,VALID,78.8445,VALID,0,VALID,24.2653,VALID,171,VALID,1.09961,
2011-08-09, 01:24:04,VALID,1000.39,VALID,0,VALID,78.9437,VALID,0,VALID,24.2458,VALID,171,VALID,1.0168,
2011-08-09, 01:25:04,VALID,1000.39,VALID,0,VALID,78.9666,VALID,0,VALID,24.2458,VALID,171,VALID,0.65,
2011-08-09, 01:26:04,VALID,1000.39,VALID,0,VALID,78.875,VALID,0,VALID,24.2458,VALID,171,VALID,0.823828,
2011-08-09, 01:27:04,VALID,1000.39,VALID,0,VALID,78.7453,VALID,0,VALID,24.2671,VALID,171,VALID,0.896484,
2011-08-09, 01:28:04,VALID,1000.36,VALID,0,VALID,78.6309,VALID,0,VALID,24.2281,VALID,170,VALID,0.709766,
2011-08-09, 01:29:04,VALID,1000.37,VALID,0,VALID,78.6003,VALID,0,VALID,24.2263,VALID,171,VALID,0.817969,
2011-08-09, 01:30:04,VALID,1000.34,VALID,0,VALID,78.1502,VALID,0,VALID,24.2458,VALID,171,VALID,0.471094,
2011-08-09, 01:31:04,VALID,1000.29,VALID,0,VALID,78.1731,VALID,0,VALID,24.2671,VALID,171,VALID,0.565625,
2011-08-09, 01:32:04,VALID,1000.29,VALID,0,VALID,77.9289,VALID,0,VALID,24.2476,VALID,170,VALID,0.911719,
2011-08-09, 01:33:04,VALID,1000.27,VALID,0,VALID,77.8984,VALID,0,VALID,24.2671,VALID,170,VALID,0.598437,
2011-08-09, 01:34:04,VALID,1000.27,VALID,0,VALID,77.784,VALID,0,VALID,24.2885,VALID,170,VALID,1.03086,
2011-08-09, 01:35:04,VALID,1000.24,VALID,0,VALID,77.639,VALID,0,VALID,24.308,VALID,170,VALID,0.939453,
2011-08-09, 01:36:04,VALID,1000.26,VALID,0,VALID,77.4788,VALID,0,VALID,24.2866,VALID,158,VALID,1.06445,
2011-08-09, 01:37:04,VALID,1000.26,VALID,0,VALID,77.6543,VALID,0,VALID,24.308,VALID,158,VALID,0.903516,
2011-08-09, 01:38:04,VALID,1000.19,VALID,0,VALID,77.5093,VALID,0,VALID,24.3062,VALID,148,VALID,0.940234,
2011-08-09, 01:39:04,VALID,1000.18,VALID,0,VALID,77.5017,VALID,0,VALID,24.308,VALID,148,VALID,0.976563,
2011-08-09, 01:40:04,VALID,1000.18,VALID,0,VALID,77.2804,VALID,0,VALID,24.308,VALID,158,VALID,1.14648,
2011-08-09, 01:41:04,VALID,1000.16,VALID,0,VALID,77.2957,VALID,0,VALID,24.3062,VALID,167,VALID,1.18281,
2011-08-09, 01:42:04,VALID,1000.12,VALID,0,VALID,77.3109,VALID,0,VALID,24.2885,VALID,148,VALID,0.907031,
2011-08-09, 01:43:04,VALID,1000.12,VALID,0,VALID,77.3338,VALID,0,VALID,24.2476,VALID,155,VALID,1.17891,
2011-08-09, 01:44:04,VALID,1000.09,VALID,0,VALID,77.2957,VALID,0,VALID,24.2476,VALID,158,VALID,1.17969,
2011-08-09, 01:45:04,VALID,1000.06,VALID,0,VALID,77.0744,VALID,0,VALID,24.2671,VALID,164,VALID,1.5168,
2011-08-09, 01:46:04,VALID,1000.03,VALID,0,VALID,77.0973,VALID,0,VALID,24.2885,VALID,175,VALID,1.55664,
2011-08-09, 01:47:04,VALID,1000.02,VALID,0,VALID,77.1278,VALID,0,VALID,24.2476,VALID,174,VALID,1.08984,
2011-08-09, 01:48:04,VALID,999.964,VALID,0,VALID,76.8837,VALID,0,VALID,24.2671,VALID,171,VALID,1.21055,
2011-08-09, 01:49:04,VALID,999.994,VALID,0,VALID,76.6548,VALID,0,VALID,24.2885,VALID,166,VALID,1.15977,
2011-08-09, 01:50:04,VALID,1000.02,VALID,0,VALID,76.5404,VALID,0,VALID,24.2671,VALID,174,VALID,1.25625,
2011-08-09, 01:51:04,VALID,1000.01,VALID,0,VALID,76.4335,VALID,0,VALID,24.2866,VALID,158,VALID,0.96875,
2011-08-09, 01:52:04,VALID,1000.04,VALID,0,VALID,76.3954,VALID,0,VALID,24.3275,VALID,170,VALID,1.22266,
2011-08-09, 01:53:04,VALID,1000.04,VALID,0,VALID,76.2275,VALID,0,VALID,24.3062,VALID,166,VALID,1.28555,
2011-08-09, 01:54:04,VALID,1000.08,VALID,0,VALID,76.2123,VALID,0,VALID,24.3257,VALID,169,VALID,1.14102,
2011-08-09, 01:55:04,VALID,1000.08,VALID,0,VALID,76.3496,VALID,0,VALID,24.2866,VALID,174,VALID,1.10195,
2011-08-09, 01:56:04,VALID,1000.09,VALID,0,VALID,76.2886,VALID,0,VALID,24.2866,VALID,173,VALID,1.30859,
2011-08-09, 01:57:04,VALID,1000.07,VALID,0,VALID,76.1589,VALID,0,VALID,24.2866,VALID,175,VALID,1.51758,
2011-08-09, 01:58:04,VALID,1000.06,VALID,0,VALID,75.9147,VALID,0,VALID,24.3275,VALID,180,VALID,1.23047,
2011-08-09, 01:59:04,VALID,1000.07,VALID,0,VALID,75.6019,VALID,0,VALID,24.3257,VALID,182,VALID,1.95,
2011-08-09, 02:00:04,VALID,1000.09,VALID,0,VALID,75.373,VALID,0,VALID,24.3647,VALID,172,VALID,1.48945,
2011-08-09, 02:01:04,VALID,1000.05,VALID,0,VALID,75.4112,VALID,0,VALID,24.4037,VALID,166,VALID,1.44414,
2011-08-09, 02:02:04,VALID,1000.01,VALID,0,VALID,75.579,VALID,0,VALID,24.3842,VALID,166,VALID,1.22695,
2011-08-09, 02:03:04,VALID,999.971,VALID,0,VALID,75.5256,VALID,0,VALID,24.3452,VALID,166,VALID,1.28789,
2011-08-09, 02:04:04,VALID,999.988,VALID,0,VALID,75.5104,VALID,0,VALID,24.3452,VALID,166,VALID,1.04922,
2011-08-09, 02:05:04,VALID,999.947,VALID,0,VALID,75.373,VALID,0,VALID,24.3257,VALID,163,VALID,1.6375,
2011-08-09, 02:06:04,VALID,999.977,VALID,0,VALID,75.2357,VALID,0,VALID,24.3452,VALID,157,VALID,1.44102,
2011-08-09, 02:07:04,VALID,999.995,VALID,0,VALID,75.2509,VALID,0,VALID,24.3238,VALID,160,VALID,1.21289,
2011-08-09, 02:08:04,VALID,999.971,VALID,0,VALID,75.1975,VALID,0.112286,VALID,24.3433,VALID,149,VALID,1.2582,
2011-08-09, 02:09:04,VALID,999.996,VALID,0,VALID,75.2433,VALID,0,VALID,24.3647,VALID,150,VALID,1.11914,
2011-08-09, 02:10:04,VALID,1000.04,VALID,0,VALID,75.2815,VALID,0,VALID,24.3238,VALID,150,VALID,0.93125,
2011-08-09, 02:11:04,VALID,1000.06,VALID,0,VALID,75.4264,VALID,0,VALID,24.3043,VALID,150,VALID,0.992969,
2011-08-09, 02:12:04,VALID,1000.01,VALID,0,VALID,75.6477,VALID,0,VALID,24.2848,VALID,150,VALID,0.765625,
2011-08-09, 02:13:04,VALID,1000,VALID,0,VALID,75.8537,VALID,0,VALID,24.2671,VALID,150,VALID,0.853906,
2011-08-09, 02:14:04,VALID,999.997,VALID,0,VALID,75.9071,VALID,0.112286,VALID,24.2067,VALID,152,VALID,1.28437,
2011-08-09, 02:15:04,VALID,1000.01,VALID,0,VALID,75.9529,VALID,0,VALID,24.2281,VALID,163,VALID,1.10273,
2011-08-09, 02:16:04,VALID,999.983,VALID,0,VALID,75.93,VALID,0,VALID,24.2263,VALID,162,VALID,1.23125,
2011-08-09, 02:17:04,VALID,999.986,VALID,0,VALID,75.6095,VALID,0,VALID,24.2067,VALID,160,VALID,1.62617,
2011-08-09, 02:18:04,VALID,999.949,VALID,0,VALID,75.4341,VALID,0.112286,VALID,24.2671,VALID,158,VALID,1.84141,
2011-08-09, 02:19:04,VALID,999.965,VALID,0,VALID,75.4646,VALID,0,VALID,24.2671,VALID,162,VALID,1.72773,
2011-08-09, 02:20:04,VALID,999.962,VALID,0,VALID,75.3425,VALID,0,VALID,24.2653,VALID,161,VALID,2.02969,
2011-08-09, 02:21:04,VALID,999.967,VALID,0,VALID,75.3959,VALID,0,VALID,24.2866,VALID,166,VALID,1.85547,
2011-08-09, 02:22:04,VALID,999.958,VALID,0,VALID,75.3883,VALID,0,VALID,24.2866,VALID,165,VALID,1.62734,
2011-08-09, 02:23:04,VALID,999.95,VALID,0,VALID,75.2738,VALID,0,VALID,24.2848,VALID,160,VALID,1.96484,
2011-08-09, 02:24:04,VALID,999.955,VALID,0,VALID,75.1289,VALID,0.112286,VALID,24.3043,VALID,161,VALID,2.13242,
2011-08-09, 02:25:04,VALID,999.953,VALID,0,VALID,75.2586,VALID,0,VALID,24.3043,VALID,155,VALID,1.91484,
2011-08-09, 02:26:04,VALID,999.959,VALID,0,VALID,75.3425,VALID,0,VALID,24.3043,VALID,159,VALID,1.74648,
2011-08-09, 02:27:04,VALID,999.942,VALID,0,VALID,75.2738,VALID,0,VALID,24.3043,VALID,152,VALID,1.9582,
2011-08-09, 02:28:04,VALID,999.949,VALID,0,VALID,74.7626,VALID,0,VALID,24.3433,VALID,156,VALID,2.46602,
2011-08-09, 02:29:04,VALID,999.941,VALID,0,VALID,74.8161,VALID,0,VALID,24.4233,VALID,157,VALID,1.98047,
2011-08-09, 02:30:04,VALID,999.942,VALID,0,VALID,74.3201,VALID,0,VALID,24.4214,VALID,155,VALID,2.44023,
2011-08-09, 02:31:04,VALID,999.942,VALID,0,VALID,74.1294,VALID,0,VALID,24.4837,VALID,159,VALID,2.57578,
2011-08-09, 02:32:04,VALID,999.93,VALID,0,VALID,74.1294,VALID,0,VALID,24.5013,VALID,155,VALID,2.44414,
2011-08-09, 02:33:04,VALID,999.94,VALID,0,VALID,74.0531,VALID,0,VALID,24.5209,VALID,152,VALID,2.34336,
2011-08-09, 02:34:04,VALID,999.935,VALID,0,VALID,74.2667,VALID,0,VALID,24.5209,VALID,147,VALID,2.03828,
2011-08-09, 02:35:04,VALID,999.928,VALID,0,VALID,74.4575,VALID,0,VALID,24.4623,VALID,157,VALID,2.05273,
2011-08-09, 02:36:04,VALID,999.912,VALID,0,VALID,74.343,VALID,0,VALID,24.4233,VALID,159,VALID,2.25273,
2011-08-09, 02:37:04,VALID,999.876,VALID,0,VALID,74.5795,VALID,0,VALID,24.4837,VALID,148,VALID,1.82852,
2011-08-09, 02:38:04,VALID,999.85,VALID,0,VALID,74.8389,VALID,0,VALID,24.4428,VALID,149,VALID,1.7793,
2011-08-09, 02:39:04,VALID,999.808,VALID,0,VALID,74.9076,VALID,0,VALID,24.3842,VALID,149,VALID,2.14102,
2011-08-09, 02:40:04,VALID,999.82,VALID,0,VALID,75.1289,VALID,0,VALID,24.3647,VALID,156,VALID,2.01953,
2011-08-09, 02:41:04,VALID,999.811,VALID,0,VALID,75.3272,VALID,0,VALID,24.3257,VALID,146,VALID,1.86406,
2011-08-09, 02:42:04,VALID,999.813,VALID,0,VALID,75.2204,VALID,0,VALID,24.3062,VALID,138,VALID,2.70078,
2011-08-09, 02:43:04,VALID,999.819,VALID,0,VALID,75.2052,VALID,0,VALID,24.3257,VALID,136,VALID,2.29922,
2011-08-09, 02:44:04,VALID,999.802,VALID,0,VALID,75.1899,VALID,0,VALID,24.3257,VALID,140,VALID,2.2207,
2011-08-09, 02:45:04,VALID,999.822,VALID,0,VALID,75.1136,VALID,0,VALID,24.3647,VALID,140,VALID,1.85312,
2011-08-09, 02:46:04,VALID,999.833,VALID,0,VALID,75.167,VALID,0,VALID,24.3647,VALID,140,VALID,1.8918,
2011-08-09, 02:47:04,VALID,999.786,VALID,0,VALID,75.2357,VALID,0,VALID,24.3452,VALID,148,VALID,1.72227,
2011-08-09, 02:48:04,VALID,999.764,VALID,0,VALID,75.1441,VALID,0,VALID,24.3647,VALID,150,VALID,2.32344,
2011-08-09, 02:49:04,VALID,999.739,VALID,0,VALID,74.9076,VALID,0,VALID,24.4037,VALID,155,VALID,1.92031,
2011-08-09, 02:50:04,VALID,999.703,VALID,0,VALID,74.9458,VALID,0,VALID,24.4037,VALID,153,VALID,2.21172,
2011-08-09, 02:51:04,VALID,999.713,VALID,0,VALID,75.0602,VALID,0,VALID,24.3842,VALID,155,VALID,1.95859,
2011-08-09, 02:52:04,VALID,999.705,VALID,0,VALID,75.1746,VALID,0,VALID,24.4056,VALID,155,VALID,2.13828,
2011-08-09, 02:53:04,VALID,999.708,VALID,0,VALID,75.2204,VALID,0,VALID,24.3842,VALID,155,VALID,1.73164,
2011-08-09, 02:54:04,VALID,999.705,VALID,0,VALID,75.2815,VALID,0,VALID,24.3647,VALID,156,VALID,1.88281,
2011-08-09, 02:55:04,VALID,999.717,VALID,0,VALID,75.167,VALID,0,VALID,24.3647,VALID,166,VALID,2.29492,
2011-08-09, 02:56:04,VALID,999.731,VALID,0,VALID,75.1746,VALID,0,VALID,24.4037,VALID,168,VALID,2.20547,
2011-08-09, 02:57:04,VALID,999.698,VALID,0,VALID,75.1289,VALID,0,VALID,24.4037,VALID,169,VALID,2.16602,
2011-08-09, 02:58:04,VALID,999.697,VALID,0,VALID,74.9992,VALID,0,VALID,24.4037,VALID,169,VALID,2.02187,
2011-08-09, 02:59:04,VALID,999.679,VALID,0,VALID,74.8008,VALID,0,VALID,24.4446,VALID,158,VALID,2.54688,
2011-08-09, 03:00:04,VALID,999.674,VALID,0,VALID,74.8237,VALID,0,VALID,24.4428,VALID,160,VALID,2.32578,
2011-08-09, 03:01:04,VALID,999.679,VALID,0,VALID,74.9305,VALID,0,VALID,24.4233,VALID,159,VALID,2.33828,
2011-08-09, 03:02:04,VALID,999.674,VALID,0,VALID,74.9687,VALID,0,VALID,24.4019,VALID,151,VALID,2.13867,
2011-08-09, 03:03:04,VALID,999.678,VALID,0,VALID,75.2662,VALID,0,VALID,24.3842,VALID,152,VALID,1.92969,
2011-08-09, 03:04:04,VALID,999.683,VALID,0,VALID,75.5561,VALID,0,VALID,24.347,VALID,148,VALID,2.02617,
2011-08-09, 03:05:04,VALID,999.694,VALID,0,VALID,75.8308,VALID,0,VALID,24.2866,VALID,153,VALID,1.88437,
2011-08-09, 03:06:04,VALID,999.689,VALID,0,VALID,75.785,VALID,0,VALID,24.2671,VALID,155,VALID,2.09453,
2011-08-09, 03:07:04,VALID,999.711,VALID,0,VALID,75.8384,VALID,0,VALID,24.2866,VALID,153,VALID,1.96484,
2011-08-09, 03:08:04,VALID,999.696,VALID,0,VALID,75.8918,VALID,0,VALID,24.2671,VALID,143,VALID,1.64219,
2011-08-09, 03:09:04,VALID,999.697,VALID,0,VALID,76.136,VALID,0,VALID,24.2476,VALID,142,VALID,1.31328,
2011-08-09, 03:10:04,VALID,999.705,VALID,0,VALID,76.2504,VALID,0,VALID,24.1891,VALID,140,VALID,1.7082,
2011-08-09, 03:11:04,VALID,999.729,VALID,0,VALID,76.2809,VALID,0,VALID,24.1909,VALID,140,VALID,2.04492,
2011-08-09, 03:12:04,VALID,999.741,VALID,0,VALID,76.3496,VALID,0,VALID,24.1696,VALID,132,VALID,1.63984,
2011-08-09, 03:13:04,VALID,999.697,VALID,0,VALID,76.342,VALID,0,VALID,24.1696,VALID,146,VALID,1.64727,
2011-08-09, 03:14:04,VALID,999.737,VALID,0,VALID,76.3649,VALID,0,VALID,24.1696,VALID,144,VALID,1.69141,
2011-08-09, 03:15:04,VALID,999.747,VALID,0,VALID,76.3267,VALID,0,VALID,24.1714,VALID,152,VALID,1.66992,
2011-08-09, 03:16:04,VALID,999.742,VALID,0,VALID,76.1131,VALID,0,VALID,24.1677,VALID,144,VALID,2.1832,
2011-08-09, 03:17:04,VALID,999.757,VALID,0,VALID,75.8613,VALID,0.112286,VALID,24.2067,VALID,147,VALID,2.47461,
2011-08-09, 03:18:04,VALID,999.762,VALID,0,VALID,75.8155,VALID,0,VALID,24.2653,VALID,148,VALID,1.96563,
2011-08-09, 03:19:04,VALID,999.746,VALID,0,VALID,75.7698,VALID,0,VALID,24.2653,VALID,134,VALID,1.98906,
2011-08-09, 03:20:04,VALID,999.773,VALID,0,VALID,75.8079,VALID,0,VALID,24.2866,VALID,145,VALID,1.86367,
2011-08-09, 03:21:04,VALID,999.782,VALID,0,VALID,75.7621,VALID,0,VALID,24.2653,VALID,152,VALID,2.23242,
2011-08-09, 03:22:04,VALID,999.808,VALID,0,VALID,75.7011,VALID,0.112286,VALID,24.3043,VALID,167,VALID,1.8832,
2011-08-09, 03:23:04,VALID,999.803,VALID,0,VALID,75.2891,VALID,0,VALID,24.3433,VALID,187,VALID,1.62656,
2011-08-09, 03:24:04,VALID,999.823,VALID,0,VALID,74.8161,VALID,0,VALID,24.4019,VALID,173,VALID,2.08672,
2011-08-09, 03:25:04,VALID,999.803,VALID,0,VALID,74.5948,VALID,0,VALID,24.5013,VALID,167,VALID,1.72344,
2011-08-09, 03:26:04,VALID,999.785,VALID,0,VALID,74.0836,VALID,0.112286,VALID,24.5385,VALID,185,VALID,2.36211,
2011-08-09, 03:27:04,VALID,999.806,VALID,0,VALID,73.7937,VALID,0,VALID,24.5775,VALID,176,VALID,2.21133,
2011-08-09, 03:28:04,VALID,999.801,VALID,0,VALID,73.519,VALID,0,VALID,24.6166,VALID,172,VALID,1.79961,
2011-08-09, 03:29:04,VALID,999.811,VALID,0,VALID,73.5343,VALID,0,VALID,24.6575,VALID,166,VALID,1.37461,
2011-08-09, 03:30:04,VALID,999.827,VALID,0,VALID,73.5801,VALID,0,VALID,24.6575,VALID,171,VALID,1.83438,
2011-08-09, 03:31:04,VALID,999.831,VALID,0,VALID,73.5953,VALID,0,VALID,24.638,VALID,179,VALID,1.82578,
2011-08-09, 03:32:04,VALID,999.859,VALID,0,VALID,73.5877,VALID,0,VALID,24.6361,VALID,173,VALID,1.6207,
2011-08-09, 03:33:04,VALID,999.844,VALID,0,VALID,73.5343,VALID,0.112286,VALID,24.6361,VALID,162,VALID,2.35039,
2011-08-09, 03:34:04,VALID,999.869,VALID,0,VALID,73.7327,VALID,0,VALID,24.6361,VALID,171,VALID,2.00195,
2011-08-09, 03:35:04,VALID,999.855,VALID,0,VALID,73.6869,VALID,0,VALID,24.638,VALID,166,VALID,1.54727,
2011-08-09, 03:36:04,VALID,999.855,VALID,0,VALID,73.7708,VALID,0.112286,VALID,24.6166,VALID,172,VALID,1.45781,
2011-08-09, 03:37:04,VALID,999.834,VALID,0,VALID,73.8776,VALID,0,VALID,24.5971,VALID,182,VALID,1.62578,
2011-08-09, 03:38:04,VALID,999.814,VALID,0,VALID,73.7479,VALID,0.112286,VALID,24.5971,VALID,172,VALID,1.83281,
2011-08-09, 03:39:04,VALID,999.814,VALID,0,VALID,73.5266,VALID,0,VALID,24.6361,VALID,181,VALID,2.17266,
2011-08-09, 03:40:04,VALID,999.797,VALID,0,VALID,73.3512,VALID,0.112286,VALID,24.6751,VALID,198,VALID,1.29883,
2011-08-09, 03:41:04,VALID,999.772,VALID,0,VALID,73.2978,VALID,0,VALID,24.6751,VALID,204,VALID,1.15703,
2011-08-09, 03:42:04,VALID,999.766,VALID,0,VALID,73.2672,VALID,0,VALID,24.6556,VALID,194,VALID,1.98242,
2011-08-09, 03:43:04,VALID,999.769,VALID,0,VALID,73.0841,VALID,0,VALID,24.6751,VALID,211,VALID,1.13164,
2011-08-09, 03:44:04,VALID,999.771,VALID,0,VALID,73.0155,VALID,0.112286,VALID,24.6946,VALID,169,VALID,1.60391,
2011-08-09, 03:45:04,VALID,999.799,VALID,0,VALID,73.0384,VALID,0,VALID,24.716,VALID,159,VALID,1.76133,